TimeCDT,TemperatureF,Dew PointF,Humidity,Sea Level PressureIn,VisibilityMPH,Wind Direction,Wind SpeedMPH,Gust SpeedMPH,PrecipitationIn,Events,Conditions,WindDirDegrees,DateUTC
12:15 AM,44.6,41.9,90,30.06,10.0,NNE,6.9,-,N/A,,Overcast,30,2013-05-04 05:15:00
12:35 AM,44.6,41.4,88,30.06,10.0,NE,6.9,-,N/A,,Scattered Clouds,40,2013-05-04 05:35:00
12:55 AM,44.4,41.0,88,30.06,10.0,NE,5.8,-,N/A,,Scattered Clouds,50,2013-05-04 05:55:00
1:15 AM,44.2,40.6,87,30.06,10.0,NE,5.8,-,N/A,,Mostly Cloudy,40,2013-05-04 06:15:00
1:35 AM,44.2,40.6,87,30.06,10.0,NE,5.8,-,N/A,,Mostly Cloudy,40,2013-05-04 06:35:00
1:55 AM,44.2,40.6,87,30.05,10.0,NNE,6.9,-,N/A,,Overcast,20,2013-05-04 06:55:00
2:15 AM,44.1,40.5,87,30.05,10.0,NE,5.8,-,N/A,,Mostly Cloudy,40,2013-05-04 07:15:00
2:35 AM,43.7,40.1,87,30.05,10.0,NE,5.8,-,N/A,,Scattered Clouds,40,2013-05-04 07:35:00
2:55 AM,43.7,40.3,88,30.04,10.0,NE,4.6,-,N/A,,Scattered Clouds,40,2013-05-04 07:55:00
3:15 AM,43.7,40.3,88,30.05,10.0,NE,8.1,-,N/A,,Scattered Clouds,40,2013-05-04 08:15:00
3:35 AM,43.7,40.3,88,30.05,10.0,NE,5.8,-,N/A,,Clear,40,2013-05-04 08:35:00
3:55 AM,43.7,40.3,88,30.05,10.0,NE,5.8,-,N/A,,Clear,40,2013-05-04 08:55:00
4:15 AM,43.7,40.1,87,30.05,10.0,NE,5.8,-,N/A,,Clear,40,2013-05-04 09:15:00
4:35 AM,43.5,40.1,88,30.05,10.0,NE,4.6,-,N/A,,Mostly Cloudy,40,2013-05-04 09:35:00
4:55 AM,43.7,40.3,88,30.04,10.0,NNE,5.8,-,N/A,,Overcast,20,2013-05-04 09:55:00
5:15 AM,43.3,40.1,88,30.05,10.0,NE,4.6,-,N/A,,Mostly Cloudy,40,2013-05-04 10:15:00
5:35 AM,43.3,40.1,88,30.06,10.0,NNE,3.5,-,N/A,,Scattered Clouds,30,2013-05-04 10:35:00
5:55 AM,43.2,40.1,89,30.06,10.0,NNE,3.5,-,N/A,,Mostly Cloudy,30,2013-05-04 10:55:00
6:15 AM,43.2,40.1,89,30.07,10.0,NNE,3.5,-,N/A,,Mostly Cloudy,20,2013-05-04 11:15:00
6:35 AM,43.3,40.3,89,30.07,10.0,NE,4.6,-,N/A,,Scattered Clouds,40,2013-05-04 11:35:00
6:55 AM,43.7,40.5,88,30.07,10.0,NNE,5.8,-,N/A,,Mostly Cloudy,20,2013-05-04 11:55:00
7:15 AM,44.2,41.0,88,30.07,10.0,NNE,6.9,-,N/A,,Scattered Clouds,20,2013-05-04 12:15:00
7:35 AM,45.0,41.4,87,30.08,10.0,NNE,4.6,-,N/A,,Clear,30,2013-05-04 12:35:00
7:55 AM,45.9,41.7,85,30.08,10.0,NNE,6.9,-,N/A,,Clear,20,2013-05-04 12:55:00
8:15 AM,47.3,42.3,83,30.09,10.0,NE,5.8,-,N/A,,Clear,40,2013-05-04 13:15:00
8:35 AM,48.0,42.6,82,30.09,10.0,NE,4.6,-,N/A,,Clear,40,2013-05-04 13:35:00
8:55 AM,49.1,42.8,79,30.10,10.0,NNE,5.8,-,N/A,,Clear,20,2013-05-04 13:55:00
9:15 AM,50.4,43.5,77,30.09,10.0,NE,5.8,-,N/A,,Scattered Clouds,40,2013-05-04 14:15:00
9:35 AM,51.8,43.7,74,30.09,10.0,NE,5.8,-,N/A,,Clear,40,2013-05-04 14:35:00
9:55 AM,53.6,44.6,72,30.09,10.0,NNE,6.9,-,N/A,,Clear,20,2013-05-04 14:55:00
10:15 AM,54.3,45.0,71,30.09,10.0,NE,4.6,-,N/A,,Clear,50,2013-05-04 15:15:00
10:35 AM,56.8,45.5,66,30.09,10.0,NNE,4.6,-,N/A,,Clear,20,2013-05-04 15:35:00
10:55 AM,58.1,45.5,63,30.09,10.0,NNE,5.8,-,N/A,,Clear,20,2013-05-04 15:55:00
11:15 AM,59.2,45.7,61,30.09,10.0,NNE,6.9,-,N/A,,Clear,20,2013-05-04 16:15:00
11:35 AM,61.0,46.6,59,30.09,10.0,East,6.9,-,N/A,,Clear,80,2013-05-04 16:35:00
11:55 AM,62.2,45.9,55,30.09,10.0,ENE,6.9,-,N/A,,Clear,70,2013-05-04 16:55:00
12:15 PM,63.3,47.1,56,30.08,10.0,NE,5.8,-,N/A,,Clear,40,2013-05-04 17:15:00
12:35 PM,64.0,46.8,53,30.08,10.0,NE,6.9,-,N/A,,Clear,50,2013-05-04 17:35:00
12:55 PM,65.8,47.1,51,30.08,10.0,ESE,8.1,-,N/A,,Clear,110,2013-05-04 17:55:00
1:15 PM,66.2,47.3,51,30.08,10.0,East,5.8,-,N/A,,Clear,80,2013-05-04 18:15:00
1:35 PM,68.7,48.6,49,30.07,10.0,NE,8.1,-,N/A,,Clear,40,2013-05-04 18:35:00
1:55 PM,68.5,47.5,47,30.06,10.0,ENE,6.9,-,N/A,,Clear,60,2013-05-04 18:55:00
2:15 PM,69.6,47.7,45,30.05,10.0,ENE,6.9,-,N/A,,Clear,60,2013-05-04 19:15:00
2:35 PM,70.5,47.5,44,30.05,10.0,ENE,8.1,-,N/A,,Clear,60,2013-05-04 19:35:00
3:15 PM,72.3,44.6,37,30.04,10.0,East,10.4,16.1,N/A,,Clear,100,2013-05-04 20:15:00
3:35 PM,73.0,43.7,35,30.04,10.0,East,9.2,-,N/A,,Clear,90,2013-05-04 20:35:00
3:55 PM,72.7,43.0,34,30.04,10.0,East,10.4,-,N/A,,Clear,90,2013-05-04 20:55:00
4:15 PM,72.0,43.9,36,30.04,10.0,NE,10.4,16.1,N/A,,Clear,50,2013-05-04 21:15:00
4:35 PM,72.0,43.9,36,30.04,10.0,ESE,9.2,17.3,N/A,,Clear,110,2013-05-04 21:35:00
4:55 PM,72.0,43.9,36,30.04,10.0,East,8.1,-,N/A,,Clear,100,2013-05-04 21:55:00
5:15 PM,71.1,44.6,39,30.05,10.0,East,8.1,-,N/A,,Clear,80,2013-05-04 22:15:00
5:35 PM,72.0,44.2,37,30.04,10.0,East,5.8,-,N/A,,Clear,90,2013-05-04 22:35:00
5:55 PM,71.1,45.7,40,30.05,10.0,East,8.1,-,N/A,,Clear,80,2013-05-04 22:55:00
6:15 PM,71.8,45.5,39,30.05,10.0,SE,5.8,-,N/A,,Clear,130,2013-05-04 23:15:00
6:35 PM,70.7,46.8,42,30.05,10.0,East,5.8,-,N/A,,Clear,80,2013-05-04 23:35:00
6:55 PM,71.1,46.2,41,30.05,10.0,ESE,4.6,-,N/A,,Clear,110,2013-05-04 23:55:00
7:15 PM,70.7,45.7,41,30.05,10.0,Calm,Calm,-,N/A,,Clear,0,2013-05-05 00:15:00
7:35 PM,69.3,45.9,43,30.05,10.0,NE,3.5,-,N/A,,Clear,50,2013-05-05 00:35:00
7:55 PM,68.4,46.4,45,30.06,10.0,ENE,3.5,-,N/A,,Clear,60,2013-05-05 00:55:00
8:15 PM,66.0,47.3,51,30.06,10.0,ENE,3.5,-,N/A,,Clear,70,2013-05-05 01:15:00
8:35 PM,64.6,47.5,54,30.07,10.0,ENE,3.5,-,N/A,,Clear,70,2013-05-05 01:35:00
8:55 PM,64.2,47.3,54,30.08,10.0,ENE,3.5,-,N/A,,Clear,60,2013-05-05 01:55:00
9:15 PM,64.0,48.0,56,30.09,10.0,ENE,5.8,-,N/A,,Clear,60,2013-05-05 02:15:00
9:35 PM,62.8,46.4,55,30.09,10.0,ENE,3.5,-,N/A,,Clear,60,2013-05-05 02:35:00
9:55 PM,62.6,46.0,55,30.09,10.0,ENE,4.6,-,N/A,,Clear,60,2013-05-05 02:55:00
10:15 PM,62.2,44.2,52,30.09,10.0,ENE,5.8,-,N/A,,Clear,60,2013-05-05 03:15:00
10:35 PM,61.0,43.3,52,30.09,10.0,East,4.6,-,N/A,,Clear,80,2013-05-05 03:35:00
10:55 PM,57.9,43.5,59,30.08,10.0,Calm,Calm,-,N/A,,Clear,0,2013-05-05 03:55:00
11:15 PM,58.6,44.1,58,30.08,10.0,Calm,Calm,-,N/A,,Clear,0,2013-05-05 04:15:00
11:35 PM,54.7,45.5,71,30.09,10.0,Calm,Calm,-,N/A,,Clear,0,2013-05-05 04:35:00
11:55 PM,56.8,43.9,62,30.08,10.0,NE,3.5,-,N/A,,Clear,50,2013-05-05 04:55:00